| Back to River Map | <<< Previous Forecast Point | | | Next Forecast Point >>> | Printer Version | Graph Version |  |
|
SACRAMENTO RIVER - WILKINS SLOUGH (WLKC1)
| Latitude: 39.01º N | Longitude: 121.82º W | Elevation: 30 Feet | | Forecast Type: Unofficial Location |
| Location: Sutter County in California | Bulletin Group: Upper Sacramento | River Group: Upper Sacramento |
| Issuance Time: | May 06 2026 at 7:46 AM PDT | Next Issuance: | May 07 2026 at 9:00 AM PDT
| |
| Action/Monitor: 47.6 Feet | Minor Flood: 52.7 Feet | Moderate Flood: N/A | Major Flood: 56.1 Feet |
# Tabular Observed and Forecast Hydrograph Information
#
# Location: Sacramento River - Wilkins Slough (WLKC1)
#
# File Generation Time: 05/06/2026 at 07:48 AM PDT
# Data Interval: 1 Hour
#
# Most Recent Date & Time of Maximum Observed: 05/01/2026 at 07:00 AM PDT
# Maximum Observed Stage: 32.42 Feet
# Maximum Observed Flow: 8253 cfs
#
# Earliest Date & Time of Maximum Forecast: 05/09/2026 at 08:00 PM PDT
# Maximum Forecast Stage: 30.48 Feet
# Maximum Forecast Flow: 6450 cfs
#
# OBSERVED
#
# Date & Time (Local) Stage (Feet) Flow (cfs) Trend Observed Status
# ---------------------------------------------------------------------------------
05/01/2026 07 AM PDT 32.42 8253 Normal
05/01/2026 08 AM PDT 32.40 8234 - Normal
05/01/2026 09 AM PDT 32.40 8234 0 Normal
05/01/2026 10 AM PDT 32.40 8234 0 Normal
05/01/2026 11 AM PDT 32.32 8157 - Normal
05/01/2026 12 PM PDT 32.28 8119 - Normal
05/01/2026 01 PM PDT 32.27 8109 - Normal
05/01/2026 02 PM PDT 32.26 8100 - Normal
05/01/2026 03 PM PDT 32.20 8042 - Normal
05/01/2026 04 PM PDT 32.14 7985 - Normal
05/01/2026 05 PM PDT 32.09 7938 - Normal
05/01/2026 06 PM PDT 32.07 7919 - Normal
05/01/2026 07 PM PDT 32.04 7890 - Normal
05/01/2026 08 PM PDT 32.02 7871 - Normal
05/01/2026 09 PM PDT 32.01 7862 - Normal
05/01/2026 10 PM PDT 31.97 7824 - Normal
05/01/2026 11 PM PDT 31.95 7805 - Normal
05/02/2026 12 AM PDT 31.89 7749 - Normal
05/02/2026 01 AM PDT 31.84 7701 - Normal
05/02/2026 02 AM PDT 31.81 7673 - Normal
05/02/2026 03 AM PDT 31.80 7664 - Normal
05/02/2026 04 AM PDT 31.79 7654 - Normal
05/02/2026 05 AM PDT 31.76 7626 - Normal
05/02/2026 06 AM PDT 31.75 7617 - Normal
05/02/2026 07 AM PDT 31.71 7579 - Normal
05/02/2026 08 AM PDT 31.68 7551 - Normal
05/02/2026 09 AM PDT 31.64 7514 - Normal
05/02/2026 10 AM PDT 31.64 7514 0 Normal
05/02/2026 11 AM PDT 31.60 7476 - Normal
05/02/2026 12 PM PDT 31.58 7457 - Normal
05/02/2026 01 PM PDT 31.56 7439 - Normal
05/02/2026 02 PM PDT 31.49 7373 - Normal
05/02/2026 03 PM PDT 31.47 7355 - Normal
05/02/2026 04 PM PDT 31.42 7308 - Normal
05/02/2026 05 PM PDT 31.38 7271 - Normal
05/02/2026 06 PM PDT 31.33 7225 - Normal
05/02/2026 07 PM PDT 31.28 7179 - Normal
05/02/2026 08 PM PDT 31.26 7160 - Normal
05/02/2026 09 PM PDT 31.22 7123 - Normal
05/02/2026 10 PM PDT 31.19 7095 - Normal
05/02/2026 11 PM PDT 31.15 7059 - Normal
05/03/2026 12 AM PDT 31.10 7013 - Normal
05/03/2026 01 AM PDT 31.10 7013 0 Normal
05/03/2026 02 AM PDT 31.06 6976 - Normal
05/03/2026 03 AM PDT 31.02 6939 - Normal
05/03/2026 04 AM PDT 31.02 6939 0 Normal
05/03/2026 05 AM PDT 31.01 6930 - Normal
05/03/2026 06 AM PDT 30.97 6893 - Normal
05/03/2026 07 AM PDT 30.93 6857 - Normal
05/03/2026 08 AM PDT 30.88 6811 - Normal
05/03/2026 09 AM PDT 30.86 6793 - Normal
05/03/2026 10 AM PDT 30.82 6756 - Normal
05/03/2026 11 AM PDT 30.79 6729 - Normal
05/03/2026 12 PM PDT 30.75 6693 - Normal
05/03/2026 01 PM PDT 30.73 6675 - Normal
05/03/2026 02 PM PDT 30.70 6648 - Normal
05/03/2026 03 PM PDT 30.65 6602 - Normal
05/03/2026 04 PM PDT 30.61 6566 - Normal
05/03/2026 05 PM PDT 30.58 6539 - Normal
05/03/2026 06 PM PDT 30.57 6530 - Normal
05/03/2026 07 PM PDT 30.58 6539 + Normal
05/03/2026 08 PM PDT 30.58 6539 0 Normal
05/03/2026 09 PM PDT 30.58 6539 0 Normal
05/03/2026 10 PM PDT 30.57 6530 - Normal
05/03/2026 11 PM PDT 30.54 6503 - Normal
05/04/2026 12 AM PDT 30.51 6477 - Normal
05/04/2026 01 AM PDT 30.50 6468 - Normal
05/04/2026 02 AM PDT 30.48 6450 - Normal
05/04/2026 03 AM PDT 30.44 6414 - Normal
05/04/2026 04 AM PDT 30.37 6351 - Normal
05/04/2026 05 AM PDT 30.36 6342 - Normal
05/04/2026 06 AM PDT 30.35 6333 - Normal
05/04/2026 07 AM PDT 30.34 6324 - Normal
05/04/2026 08 AM PDT 30.30 6289 - Normal
05/04/2026 09 AM PDT 30.29 6280 - Normal
05/04/2026 10 AM PDT 30.26 6253 - Normal
05/04/2026 11 AM PDT 30.24 6235 - Normal
05/04/2026 12 PM PDT 30.22 6218 - Normal
05/04/2026 01 PM PDT 30.18 6182 - Normal
05/04/2026 02 PM PDT 30.18 6182 0 Normal
05/04/2026 03 PM PDT 30.11 6120 - Normal
05/04/2026 04 PM PDT 30.05 6067 - Normal
05/04/2026 05 PM PDT 30.03 6049 - Normal
05/04/2026 06 PM PDT 30.01 6032 - Normal
05/04/2026 07 PM PDT 30.07 6085 + Normal
05/04/2026 08 PM PDT 30.06 6076 - Normal
05/04/2026 09 PM PDT 30.04 6058 - Normal
05/04/2026 10 PM PDT 30.03 6049 - Normal
05/04/2026 11 PM PDT 30.01 6032 - Normal
05/05/2026 12 AM PDT 30.01 6032 0 Normal
05/05/2026 01 AM PDT 30.00 6023 - Normal
05/05/2026 02 AM PDT 30.03 6049 + Normal
05/05/2026 03 AM PDT 29.96 5988 - Normal
05/05/2026 04 AM PDT 29.99 6014 + Normal
05/05/2026 05 AM PDT 29.98 6005 - Normal
05/05/2026 06 AM PDT 29.98 6005 0 Normal
05/05/2026 07 AM PDT 29.97 5997 - Normal
05/05/2026 08 AM PDT 29.97 5997 0 Normal
05/05/2026 09 AM PDT 29.99 6014 + Normal
05/05/2026 10 AM PDT 29.99 6014 0 Normal
05/05/2026 11 AM PDT 29.99 6014 0 Normal
05/05/2026 12 PM PDT 29.98 6005 - Normal
05/05/2026 01 PM PDT 30.00 6023 + Normal
05/05/2026 02 PM PDT 30.01 6032 + Normal
05/05/2026 03 PM PDT 29.98 6005 - Normal
05/05/2026 04 PM PDT 29.96 5988 - Normal
05/05/2026 05 PM PDT 29.95 5979 - Normal
05/05/2026 06 PM PDT 29.96 5988 + Normal
05/05/2026 07 PM PDT 29.96 5988 0 Normal
05/05/2026 08 PM PDT 29.96 5988 0 Normal
05/05/2026 09 PM PDT 29.96 5988 0 Normal
05/05/2026 10 PM PDT 29.96 5988 0 Normal
05/05/2026 11 PM PDT 29.94 5970 - Normal
05/06/2026 12 AM PDT 29.93 5961 - Normal
05/06/2026 01 AM PDT 29.91 5944 - Normal
05/06/2026 02 AM PDT 29.89 5926 - Normal
05/06/2026 03 AM PDT 29.89 5926 0 Normal
05/06/2026 04 AM PDT 29.86 5900 - Normal
05/06/2026 05 AM PDT 29.85 5891 - Normal
05/06/2026 06 AM PDT 29.84 5882 - Normal
05/06/2026 07 AM PDT 29.83 5874 - Normal
#
# FORECAST
#
# Date & Time (Local) Stage (Feet) Flow (cfs) Trend Forecast Status
# ---------------------------------------------------------------------------------
05/06/2026 08 AM PDT 29.81 5856 Normal
05/06/2026 09 AM PDT 29.80 5847 - Normal
05/06/2026 10 AM PDT 29.80 5847 0 Normal
05/06/2026 11 AM PDT 29.79 5839 - Normal
05/06/2026 12 PM PDT 29.79 5839 0 Normal
05/06/2026 01 PM PDT 29.79 5839 0 Normal
05/06/2026 02 PM PDT 29.79 5839 0 Normal
05/06/2026 03 PM PDT 29.80 5847 + Normal
05/06/2026 04 PM PDT 29.80 5847 0 Normal
05/06/2026 05 PM PDT 29.81 5856 + Normal
05/06/2026 06 PM PDT 29.82 5865 + Normal
05/06/2026 07 PM PDT 29.83 5874 + Normal
05/06/2026 08 PM PDT 29.84 5882 + Normal
05/06/2026 09 PM PDT 29.86 5900 + Normal
05/06/2026 10 PM PDT 29.87 5909 + Normal
05/06/2026 11 PM PDT 29.89 5926 + Normal
05/07/2026 12 AM PDT 29.90 5935 + Normal
05/07/2026 01 AM PDT 29.92 5953 + Normal
05/07/2026 02 AM PDT 29.93 5961 + Normal
05/07/2026 03 AM PDT 29.95 5979 + Normal
05/07/2026 04 AM PDT 29.96 5988 + Normal
05/07/2026 05 AM PDT 29.98 6005 + Normal
05/07/2026 06 AM PDT 29.99 6014 + Normal
05/07/2026 07 AM PDT 30.01 6032 + Normal
05/07/2026 08 AM PDT 30.02 6041 + Normal
05/07/2026 09 AM PDT 30.04 6058 + Normal
05/07/2026 10 AM PDT 30.05 6067 + Normal
05/07/2026 11 AM PDT 30.06 6076 + Normal
05/07/2026 12 PM PDT 30.07 6085 + Normal
05/07/2026 01 PM PDT 30.08 6094 + Normal
05/07/2026 02 PM PDT 30.09 6102 + Normal
05/07/2026 03 PM PDT 30.11 6120 + Normal
05/07/2026 04 PM PDT 30.12 6129 + Normal
05/07/2026 05 PM PDT 30.12 6129 0 Normal
05/07/2026 06 PM PDT 30.14 6147 + Normal
05/07/2026 07 PM PDT 30.14 6147 0 Normal
05/07/2026 08 PM PDT 30.15 6155 + Normal
05/07/2026 09 PM PDT 30.16 6164 + Normal
05/07/2026 10 PM PDT 30.17 6173 + Normal
05/07/2026 11 PM PDT 30.18 6182 + Normal
05/08/2026 12 AM PDT 30.18 6182 0 Normal
05/08/2026 01 AM PDT 30.19 6191 + Normal
05/08/2026 02 AM PDT 30.20 6200 + Normal
05/08/2026 03 AM PDT 30.21 6209 + Normal
05/08/2026 04 AM PDT 30.21 6209 0 Normal
05/08/2026 05 AM PDT 30.22 6218 + Normal
05/08/2026 06 AM PDT 30.23 6226 + Normal
05/08/2026 07 AM PDT 30.23 6226 0 Normal
05/08/2026 08 AM PDT 30.24 6235 + Normal
05/08/2026 09 AM PDT 30.25 6244 + Normal
05/08/2026 10 AM PDT 30.25 6244 0 Normal
05/08/2026 11 AM PDT 30.26 6253 + Normal
05/08/2026 12 PM PDT 30.27 6262 + Normal
05/08/2026 01 PM PDT 30.27 6262 0 Normal
05/08/2026 02 PM PDT 30.28 6271 + Normal
05/08/2026 03 PM PDT 30.29 6280 + Normal
05/08/2026 04 PM PDT 30.30 6289 + Normal
05/08/2026 05 PM PDT 30.31 6298 + Normal
05/08/2026 06 PM PDT 30.32 6307 + Normal
05/08/2026 07 PM PDT 30.33 6315 + Normal
05/08/2026 08 PM PDT 30.34 6324 + Normal
05/08/2026 09 PM PDT 30.35 6333 + Normal
05/08/2026 10 PM PDT 30.36 6342 + Normal
05/08/2026 11 PM PDT 30.37 6351 + Normal
05/09/2026 12 AM PDT 30.38 6360 + Normal
05/09/2026 01 AM PDT 30.39 6369 + Normal
05/09/2026 02 AM PDT 30.39 6369 0 Normal
05/09/2026 03 AM PDT 30.40 6378 + Normal
05/09/2026 04 AM PDT 30.41 6387 + Normal
05/09/2026 05 AM PDT 30.42 6396 + Normal
05/09/2026 06 AM PDT 30.43 6405 + Normal
05/09/2026 07 AM PDT 30.43 6405 0 Normal
05/09/2026 08 AM PDT 30.44 6414 + Normal
05/09/2026 09 AM PDT 30.44 6414 0 Normal
05/09/2026 10 AM PDT 30.45 6423 + Normal
05/09/2026 11 AM PDT 30.45 6423 0 Normal
05/09/2026 12 PM PDT 30.46 6432 + Normal
05/09/2026 01 PM PDT 30.46 6432 0 Normal
05/09/2026 02 PM PDT 30.46 6432 0 Normal
05/09/2026 03 PM PDT 30.47 6441 + Normal
05/09/2026 04 PM PDT 30.47 6441 0 Normal
05/09/2026 05 PM PDT 30.47 6441 0 Normal
05/09/2026 06 PM PDT 30.47 6441 0 Normal
05/09/2026 07 PM PDT 30.47 6441 0 Normal
05/09/2026 08 PM PDT 30.48 6450 + Normal
05/09/2026 09 PM PDT 30.48 6450 0 Normal
05/09/2026 10 PM PDT 30.48 6450 0 Normal
05/09/2026 11 PM PDT 30.48 6450 0 Normal
05/10/2026 12 AM PDT 30.48 6450 0 Normal
05/10/2026 01 AM PDT 30.48 6450 0 Normal
05/10/2026 02 AM PDT 30.48 6450 0 Normal
05/10/2026 03 AM PDT 30.48 6450 0 Normal
05/10/2026 04 AM PDT 30.48 6450 0 Normal
05/10/2026 05 AM PDT 30.48 6450 0 Normal
05/10/2026 06 AM PDT 30.48 6450 0 Normal
05/10/2026 07 AM PDT 30.48 6450 0 Normal
05/10/2026 08 AM PDT 30.48 6450 0 Normal
05/10/2026 09 AM PDT 30.47 6441 - Normal
05/10/2026 10 AM PDT 30.47 6441 0 Normal
05/10/2026 11 AM PDT 30.47 6441 0 Normal
05/10/2026 12 PM PDT 30.47 6441 0 Normal
05/10/2026 01 PM PDT 30.47 6441 0 Normal
05/10/2026 02 PM PDT 30.47 6441 0 Normal
05/10/2026 03 PM PDT 30.46 6432 - Normal
05/10/2026 04 PM PDT 30.46 6432 0 Normal
05/10/2026 05 PM PDT 30.46 6432 0 Normal
05/10/2026 06 PM PDT 30.46 6432 0 Normal
05/10/2026 07 PM PDT 30.46 6432 0 Normal
05/10/2026 08 PM PDT 30.45 6423 - Normal
05/10/2026 09 PM PDT 30.45 6423 0 Normal
05/10/2026 10 PM PDT 30.45 6423 0 Normal
05/10/2026 11 PM PDT 30.45 6423 0 Normal
05/11/2026 12 AM PDT 30.45 6423 0 Normal
05/11/2026 01 AM PDT 30.44 6414 - Normal
05/11/2026 02 AM PDT 30.44 6414 0 Normal
05/11/2026 03 AM PDT 30.44 6414 0 Normal
05/11/2026 04 AM PDT 30.44 6414 0 Normal
05/11/2026 05 AM PDT 30.44 6414 0 Normal
#
# NOTE 1: Stages are rounded to the nearest hundredth (.01) of a foot.
# NOTE 2: Flows are rounded to the nearest (1) cfs.
# NOTE 3: Trends are determined using hourly change in unrounded stage and flow.
# NOTE 4: Maximum Values are determined using unrounded stage and flow.
|